Home   Weather   Bantam   Past weeks

Flag for Cocos Islands Past Weather in Bantam, Cocos Islands — Yesterday and Last 2 Weeks

Now
79 °F

Sprinkles. Overcast.


Feels Like: 82 °F
Forecast: 79 / 84 °F
Wind: 9 mph from Southeast

Location: Cocos Island Airport

Current Time: Jan 23, 2017 at 1:08:27 am

Latest Report: Jan 23, 2017 at 12:31 am


Visibility: 4 mi

Pressure: 29.89 "Hg

Humidity: 84%

Dew Point: 73 °F

Location of BantamLocation

Past Weather in Bantam — Graph

°F

Bantam Temperature Yesterday

Maximum temperature yesterday: 84 °F (at 10:32 am)
Minimum temperature yesterday: 77 °F (at 4:30 am)
Average temperature yesterday: 80 °F

High & Low Weather Summary for the Past Weeks

 TemperatureHumidityPressure
High86 °F (Jan 9, 12:30 pm)100% (Jan 15, 8:30 pm)29.92 "Hg (Jan 15, 8:30 pm)
Low73 °F (Jan 13, 2:00 am)52% (Jan 16, 12:00 pm)29.65 "Hg (Jan 8, 3:00 am)
Average80 °F75%29.80 "Hg
* Reported Jan 7 11:30 pm — Jan 22 11:30 pm, Bantam, Weather by CustomWeather, © 2017

Note: Actual official high and low records may vary slightly from our data, if they occured in-between our weather recording intervals... More about our weather records

Advertising

Bantam Weather History for the Previous 24 Hours

Scroll right to see more
 ConditionsComfort  
Time TempWeatherWind HumidityBarometerVisibility
11:30 pm
Sun, Jan 22
79 °FPartly cloudy.10 mph89%29.89 "HgN/A
11:00 pm79 °FPassing clouds.9 mph79%29.89 "HgN/A
10:30 pm81 °FPassing clouds.10 mph79%29.92 "HgN/A
10:00 pm79 °FClear.9 mph84%29.92 "HgN/A
9:30 pm79 °FClear.8 mph84%29.89 "HgN/A
9:00 pm79 °FClear.9 mph84%29.89 "HgN/A
8:30 pm79 °FClear.10 mph89%29.89 "HgN/A
8:00 pm79 °FClear.15 mph84%29.89 "HgN/A
7:30 pm79 °FCloudy.14 mph89%29.89 "HgN/A
7:00 pm79 °FPartly sunny.9 mph84%29.86 "HgN/A
6:30 pm79 °FScattered clouds.13 mph84%29.86 "HgN/A
6:14 pm81 °FScattered clouds.14 mph84%29.86 "HgN/A
6:00 pm81 °FScattered clouds.13 mph84%29.86 "Hg3 mi
5:30 pm81 °FScattered clouds.9 mph74%29.83 "HgN/A
5:00 pm81 °FMore clouds than sun.10 mph79%29.83 "HgN/A
4:49 pm81 °FMore clouds than sun.9 mph79%29.83 "HgN/A
4:31 pm81 °FMore clouds than sun.8 mph79%29.83 "Hg3 mi
4:00 pm81 °FMore clouds than sun.12 mph79%29.83 "HgN/A
3:30 pm81 °FMostly cloudy.14 mph79%29.83 "HgN/A
3:07 pm81 °FCloudy.16 mph79%29.83 "HgN/A
2:54 pm81 °FCloudy.15 mph84%29.86 "HgN/A
2:30 pm81 °FPartly sunny.16 mph84%29.86 "Hg5 mi
2:00 pm82 °FScattered clouds.14 mph79%29.86 "HgN/A
1:30 pm81 °FLight rain. Cloudy.10 mph79%29.86 "HgN/A
1:00 pm82 °FScattered clouds.14 mph79%29.86 "HgN/A
12:30 pm84 °FBroken clouds.15 mph70%29.86 "HgN/A
12:00 pm82 °FMore clouds than sun.13 mph74%29.89 "HgN/A
11:30 am82 °FMore clouds than sun.14 mph74%29.89 "HgN/A
11:00 am82 °FPartly sunny.16 mph74%29.89 "HgN/A
10:32 am84 °FScattered clouds.16 mph74%29.89 "HgN/A
10:05 am81 °FMostly cloudy.14 mph79%29.89 "HgN/A
9:30 am81 °FCloudy.15 mph79%29.92 "HgN/A
9:00 am79 °FMore clouds than sun.15 mph84%29.92 "HgN/A
8:39 am79 °FCloudy.16 mph89%29.92 "HgN/A
8:25 am79 °FMostly cloudy.16 mph89%29.89 "Hg4 mi
8:00 am79 °FCloudy.16 mph89%29.89 "HgN/A
7:30 am79 °FMore clouds than sun.14 mph89%29.89 "HgN/A
6:30 am77 °FOvercast.17 mph94%29.86 "HgN/A
6:00 am77 °FOvercast.16 mph94%29.86 "HgN/A
5:32 am77 °FOvercast.17 mph94%29.83 "HgN/A
5:09 am77 °FOvercast.18 mph94%29.83 "HgN/A
4:30 am77 °FSprinkles. Overcast.17 mph94%29.83 "Hg3 mi
4:00 am79 °FMostly cloudy.13 mph89%29.80 "HgN/A
3:42 am79 °FPassing clouds.13 mph89%29.83 "HgN/A
3:30 am79 °FPartly cloudy.12 mph89%29.83 "HgN/A
3:07 am79 °FPartly cloudy.13 mph89%29.83 "HgN/A
2:30 am79 °FOvercast.15 mph89%29.83 "HgN/A
2:00 am79 °FLight rain. Mostly cloudy.13 mph89%29.83 "HgN/A
1:30 am81 °FOvercast.12 mph79%29.86 "HgN/A
1:00 am79 °FPartly cloudy.12 mph89%29.86 "HgN/A
Weather by CustomWeather, © 2017

See weather overviewHow to use our weather pages